User: anonymous   Login
Location: Unspecified
(0.0000°N, 0.0000°E)
Time: 22:20:34
(UTC+00:00)
Language:

E-STAR-II - Orbit

View from above orbital plane
View from above orbital plane
View from above satellite
View from above satellite

Ground track
Ground track

The orbit data is extracted from the following two-line orbital elements,

1 41459U 16025D   23083.51605120  .00038048  00000-0  12535-2 0  9994
2 41459  98.1927 276.5424 0117660  33.0738 327.7848 15.24854915379974
Epoch (UTC): 24 March 2023 12:23:06
Eccentricity: 0.0117660
inclination: 98.1927°
perigee height: 410 km
apogee height: 572 km
right ascension of ascending node: 276.5424°
argument of perigee: 33.0738°
revolutions per day: 15.24854915
mean anomaly at epoch: 327.7848°
orbit number at epoch: 37997

The dashed part of the orbit path shows where the satellite is in the earth's shadow,  

DLR